Home > Weather > Nashville > Past weeks

Flag for USA Past Weather in Nashville, Tennessee, USA — Yesterday and Last 2 Weeks

Now
81 °F

Scattered clouds.


Feels Like: 86 °F
Forecast: 76 / 96 °F
Wind: 3 mph from South

Location: Nashville International Airport

Current Time: Jul 26, 2016 at 9:11:15 AM

Latest Report: Jul 26, 2016 at 7:53 AM


Visibility: 10 mi

Pressure: 30.02 "Hg

Humidity: 79%

Dew Point: 74 °F

Location of NashvilleLocation

Past Weather in Nashville — Graph

°F

Nashville Temperature Yesterday

Maximum temperature yesterday: 93 °F (at 1:53 PM)
Minimum temperature yesterday: 76 °F (at 4:53 AM)
Average temperature yesterday: 85 °F

High & Low Weather Summary for the Past Weeks

 TemperatureHumidityPressure
High96 °F (Jul 18, 2:53 PM)93% (Jul 17, 5:53 AM)30.23 "Hg (Jul 17, 5:53 AM)
Low70 °F (Jul 17, 5:53 AM)38% (Jul 20, 1:53 PM)29.91 "Hg (Jul 23, 5:53 PM)
Average82 °F69%30.06 "Hg
* Reported Jul 11 6:53 AM — Jul 26 6:53 AM, Nashville, Weather by CustomWeather, © 2016

Note: Actual official high and low records may vary slightly from our data, if they occured in-between our weather recording intervals... More about our weather records

Advertising

Nashville Weather History for the Previous 24 Hours

Scroll right to see more
 ConditionsComfort  
Time TempWeatherWind HumidityBarometerVisibility
6:53 AM
Tue, Jul 26
77 °FScattered clouds.No wind88%30.02 "Hg9 mi
5:53 AM75 °FPassing clouds.No wind88%30.01 "Hg10 mi
4:53 AM75 °FClear.No wind88%30.00 "Hg10 mi
3:53 AM76 °FClear.No wind85%29.99 "Hg10 mi
2:53 AM77 °FClear.No wind82%29.98 "Hg10 mi
1:53 AM77 °FClear.No wind85%30.00 "Hg10 mi
12:53 AM79 °FClear.5 mph79%30.00 "Hg10 mi
11:53 PM
Mon, Jul 25
81 °FClear.3 mph72%29.99 "Hg10 mi
10:53 PM82 °FPassing clouds.No wind70%29.98 "Hg10 mi
9:53 PM82 °FPartly cloudy.7 mph74%29.98 "Hg10 mi
8:53 PM86 °FPartly cloudy.3 mph63%29.98 "Hg10 mi
7:53 PM87 °FBroken clouds.5 mph61%29.97 "Hg10 mi
6:53 PM91 °FBroken clouds.5 mph54%29.95 "Hg10 mi
5:53 PM91 °FPartly sunny.5 mph49%29.94 "Hg10 mi
4:53 PM89 °FBroken clouds.7 mph52%29.95 "Hg10 mi
3:53 PM91 °FBroken clouds.7 mph52%29.95 "Hg10 mi
2:53 PM88 °FLight rain. Broken clouds.3 mph59%29.97 "Hg10 mi
1:53 PM93 °FBroken clouds.No wind54%29.98 "Hg10 mi
12:53 PM90 °FPartly sunny.5 mph57%30.01 "Hg10 mi
11:53 AM89 °FLight rain. Broken clouds.6 mph63%30.02 "Hg10 mi
10:53 AM91 °FBroken clouds.3 mph56%30.03 "Hg10 mi
9:53 AM89 °FScattered clouds.7 mph57%30.03 "Hg10 mi
Weather by CustomWeather, © 2016

See weather overviewHow to use our weather pages